• In Belgium
  • List of Countries
  • For 7 days
  • Water Temperature
  • Satellite Maps
  • Weather Map
  • Weather Widgets
  • user-avatar
    Login

    Hourly Weather Andenne

    Today, 19 September, Wednesday

    Time Temperature Precipitation Wind Pressure Humidity
    00:00 +18°C° 0 mm 1 mps 752 mmHg 90%
    01:00 +17°C° 0 mm 2 mps 752 mmHg 90%
    02:00 +16°C° 0 mm 2 mps 752 mmHg 90%
    03:00 +16°C° 0 mm 2 mps 752 mmHg 91%
    04:00 +16°C° 0 mm 2 mps 752 mmHg 91%
    05:00 +16°C° 0 mm 3 mps 752 mmHg 91%
    06:00 +17°C° 0 mm 3 mps 752 mmHg 88%
    07:00 +19°C° 0 mm 4 mps 752 mmHg 82%
    08:00 +21°C° 0 mm 5 mps 753 mmHg 76%
    09:00 +22°C° 0 mm 5 mps 753 mmHg 70%
    10:00 +23°C° 0 mm 6 mps 753 mmHg 65%
    11:00 +24°C° 0 mm 6 mps 753 mmHg 61%
    12:00 +26°C° 0 mm 6 mps 753 mmHg 57%
    13:00 +26°C° 0 mm 6 mps 752 mmHg 56%
    14:00 +26°C° 0 mm 6 mps 752 mmHg 56%
    15:00 +26°C° 0 mm 5 mps 752 mmHg 55%
    16:00 +23°C° 0 mm 4 mps 752 mmHg 62%
    17:00 +22°C° 0 mm 4 mps 752 mmHg 68%
    18:00 +20°C° 0 mm 3 mps 752 mmHg 75%
    19:00 +19°C° 0 mm 3 mps 753 mmHg 78%
    20:00 +18°C° 0 mm 2 mps 753 mmHg 80%
    21:00 +18°C° 0 mm 2 mps 753 mmHg 83%
    22:00 +17°C° 0 mm 2 mps 753 mmHg 85%
    23:00 +17°C° 0 mm 2 mps 753 mmHg 86%

    Tomorrow, 20 September, Thursday

    Time Temperature Precipitation Wind Pressure Humidity
    00:00 +16°C° 0 mm 2 mps 753 mmHg 88%
    01:00 +16°C° 0 mm 2 mps 753 mmHg 90%
    02:00 +16°C° 0 mm 2 mps 753 mmHg 91%
    03:00 +15°C° 0 mm 2 mps 753 mmHg 93%
    04:00 +15°C° 0 mm 2 mps 753 mmHg 93%
    05:00 +14°C° 0 mm 3 mps 753 mmHg 93%
    06:00 +14°C° 0 mm 3 mps 753 mmHg 93%
    07:00 +17°C° 0 mm 3 mps 753 mmHg 85%
    08:00 +19°C° 0 mm 4 mps 753 mmHg 78%
    09:00 +21°C° 0 mm 5 mps 753 mmHg 70%
    10:00 +22°C° 0 mm 5 mps 753 mmHg 66%
    11:00 +23°C° 0 mm 5 mps 753 mmHg 61%
    12:00 +25°C° 0 mm 5 mps 752 mmHg 57%
    13:00 +25°C° 0 mm 5 mps 752 mmHg 56%
    14:00 +26°C° 0 mm 5 mps 751 mmHg 55%
    15:00 +26°C° 0 mm 5 mps 751 mmHg 54%
    16:00 +23°C° 0 mm 4 mps 750 mmHg 59%
    17:00 +22°C° 0 mm 3 mps 749 mmHg 65%
    18:00 +20°C° 0 mm 3 mps 749 mmHg 71%
    19:00 +20°C° 0 mm 3 mps 748 mmHg 70%
    20:00 +20°C° 0 mm 4 mps 748 mmHg 69%
    21:00 +20°C° 0 mm 4 mps 748 mmHg 68%
    22:00 +20°C° 0 mm 4 mps 747 mmHg 65%
    23:00 +20°C° 0 mm 5 mps 747 mmHg 62%

    Day after tomorrow, 21 September, Friday

    Time Temperature Precipitation Wind Pressure Humidity
    00:00 +21°C° 0 mm 5 mps 746 mmHg 59%
    01:00 +20°C° 0 mm 6 mps 746 mmHg 59%
    02:00 +20°C° 0 mm 6 mps 745 mmHg 59%
    03:00 +20°C° 0 mm 7 mps 745 mmHg 60%
    04:00 +18°C° 0.3 mm 7 mps 745 mmHg 64%
    05:00 +18°C° 0.3 mm 7 mps 745 mmHg 68%
    06:00 +18°C° 0.3 mm 8 mps 745 mmHg 72%
    07:00 +16°C° 1.7 mm 7 mps 746 mmHg 75%
    08:00 +15°C° 1.7 mm 6 mps 747 mmHg 77%
    09:00 +13°C° 1.7 mm 6 mps 748 mmHg 80%
    10:00 +14°C° 0 mm 6 mps 748 mmHg 71%
    11:00 +15°C° 0 mm 6 mps 749 mmHg 62%
    12:00 +16°C° 0 mm 6 mps 750 mmHg 52%
    13:00 +16°C° 0 mm 6 mps 750 mmHg 52%
    14:00 +16°C° 0 mm 6 mps 750 mmHg 52%
    15:00 +16°C° 0 mm 6 mps 750 mmHg 51%
    16:00 +15°C° 0 mm 6 mps 751 mmHg 54%
    17:00 +14°C° 0 mm 5 mps 751 mmHg 58%
    18:00 +13°C° 0 mm 4 mps 751 mmHg 61%
    19:00 +12°C° 0 mm 4 mps 752 mmHg 63%
    20:00 +12°C° 0 mm 4 mps 752 mmHg 65%
    21:00 +11°C° 0 mm 4 mps 753 mmHg 67%
    22:00 +11°C° 0 mm 4 mps 753 mmHg 69%
    23:00 +11°C° 0 mm 4 mps 753 mmHg 71%

    22 September, Saturday

    Time Temperature Precipitation Wind Pressure Humidity
    00:00 +10°C° 0 mm 4 mps 753 mmHg 74%
    01:00 +10°C° 0 mm 4 mps 754 mmHg 76%
    02:00 +8°C° 0 mm 4 mps 754 mmHg 79%
    03:00 +8°C° 0 mm 4 mps 754 mmHg 82%
    04:00 +9°C° 0 mm 3 mps 754 mmHg 84%
    05:00 +9°C° 0 mm 3 mps 755 mmHg 85%
    06:00 +8°C° 0 mm 3 mps 755 mmHg 87%
    07:00 +10°C° 0 mm 4 mps 755 mmHg 78%
    08:00 +12°C° 0 mm 4 mps 755 mmHg 70%
    09:00 +14°C° 0 mm 5 mps 756 mmHg 61%
    10:00 +14°C° 0 mm 5 mps 756 mmHg 58%
    11:00 +15°C° 0 mm 5 mps 756 mmHg 55%
    12:00 +16°C° 0 mm 5 mps 755 mmHg 52%
    13:00 +16°C° 0.1 mm 5 mps 755 mmHg 52%
    14:00 +17°C° 0.1 mm 4 mps 755 mmHg 52%
    15:00 +17°C° 0.1 mm 4 mps 755 mmHg 51%
    16:00 +14°C° 0 mm 3 mps 755 mmHg 58%
    17:00 +14°C° 0 mm 2 mps 755 mmHg 64%
    18:00 +12°C° 0 mm 1 mps 755 mmHg 70%
    19:00 +12°C° 0 mm 1 mps 755 mmHg 70%
    20:00 +12°C° 0 mm 1 mps 755 mmHg 71%
    21:00 +12°C° 0 mm 1 mps 755 mmHg 71%
    22:00 +12°C° 0 mm 1 mps 754 mmHg 72%
    23:00 +12°C° 0 mm 2 mps 754 mmHg 72%

    23 September, Sunday

    Time Temperature Precipitation Wind Pressure Humidity
    00:00 +12°C° 0 mm 2 mps 753 mmHg 73%
    01:00 +11°C° 0.6 mm 3 mps 752 mmHg 78%
    02:00 +10°C° 0.6 mm 3 mps 751 mmHg 83%
    03:00 +10°C° 0.6 mm 4 mps 750 mmHg 88%
    04:00 +9°C° 0.2 mm 5 mps 749 mmHg 87%
    05:00 +9°C° 0.2 mm 6 mps 747 mmHg 85%
    06:00 +10°C° 0.2 mm 7 mps 746 mmHg 84%
    07:00 +11°C° 0.2 mm 8 mps 744 mmHg 81%
    08:00 +12°C° 0.2 mm 9 mps 742 mmHg 78%
    09:00 +13°C° 0.2 mm 9 mps 740 mmHg 75%
    10:00 +14°C° 0.5 mm 10 mps 738 mmHg 77%
    11:00 +17°C° 0.5 mm 10 mps 737 mmHg 79%
    12:00 +18°C° 0.5 mm 11 mps 735 mmHg 81%
    13:00 +18°C° 1.2 mm 11 mps 734 mmHg 77%
    14:00 +18°C° 1.2 mm 10 mps 734 mmHg 74%
    15:00 +18°C° 1.2 mm 10 mps 733 mmHg 70%
    16:00 +16°C° 0 mm 11 mps 732 mmHg 66%
    17:00 +14°C° 0 mm 11 mps 732 mmHg 62%
    18:00 +13°C° 0 mm 11 mps 732 mmHg 58%
    19:00 +12°C° 0.2 mm 11 mps 731 mmHg 65%
    20:00 +11°C° 0.2 mm 11 mps 731 mmHg 72%
    21:00 +11°C° 0.2 mm 11 mps 730 mmHg 78%
    22:00 +11°C° 1.1 mm 10 mps 731 mmHg 83%
    23:00 +11°C° 1.1 mm 10 mps 732 mmHg 87%

    24 September, Monday

    Time Temperature Precipitation Wind Pressure Humidity
    00:00 +11°C° 1.1 mm 9 mps 733 mmHg 91%
    01:00 +11°C° 0.9 mm 10 mps 735 mmHg 89%
    02:00 +9°C° 0.9 mm 10 mps 737 mmHg 86%
    03:00 +8°C° 0.9 mm 11 mps 740 mmHg 84%
    04:00 +8°C° 0.2 mm 10 mps 742 mmHg 83%
    05:00 +8°C° 0.2 mm 9 mps 745 mmHg 82%
    06:00 +9°C° 0.2 mm 8 mps 747 mmHg 82%
    07:00 +8°C° 0.2 mm 9 mps 748 mmHg 78%
    08:00 +10°C° 0.2 mm 9 mps 750 mmHg 74%
    09:00 +11°C° 0.2 mm 9 mps 751 mmHg 71%
    10:00 +11°C° 0.3 mm 9 mps 752 mmHg 69%
    11:00 +11°C° 0.3 mm 9 mps 753 mmHg 67%
    12:00 +11°C° 0.3 mm 9 mps 754 mmHg 66%
    13:00 +11°C° 0.4 mm 8 mps 755 mmHg 68%
    14:00 +11°C° 0.4 mm 8 mps 756 mmHg 70%
    15:00 +10°C° 0.4 mm 7 mps 756 mmHg 72%
    16:00 +9°C° 0.3 mm 6 mps 757 mmHg 75%
    17:00 +8°C° 0.3 mm 5 mps 758 mmHg 78%
    18:00 +7°C° 0.3 mm 4 mps 759 mmHg 81%
    19:00 +7°C° 0.2 mm 4 mps 759 mmHg 82%
    20:00 +7°C° 0.2 mm 4 mps 760 mmHg 84%
    21:00 +8°C° 0.2 mm 3 mps 761 mmHg 85%
    22:00 +7°C° 0.1 mm 3 mps 761 mmHg 86%
    23:00 +7°C° 0.1 mm 3 mps 761 mmHg 88%
    Show more